Weather History for KE80 - March, 2013

Change the Weather History Date:

Friday, March 8, 2013

  Actual Average (KABQ) Record (KABQ)
Temperature  
Mean Temperature 50 °F 46 °F  
Max Temperature 63 °F 58 °F 78 °F (1904)
Min Temperature 36 °F 34 °F 13 °F (1917)
Degree Days  
Heating Degree Days 16 19  
Month to date heating degree days 155  
Since 1 July heating degree days 3458  
Cooling Degree Days 0 0  
Month to date cooling degree days 0  
Year to date cooling degree days 0  
Moisture  
Dew Point 26 °F    
Average Humidity 46    
Maximum Humidity 87    
Minimum Humidity 21    
Precipitation  
Precipitation 0.04 in 0.02 in 0.48 in (1975)
Month to date precipitation 0.14  
Year to date precipitation 1.00  
Snow  
Snow 0.00 in - - ()
Month to date snowfall  
Since 1 July snowfall  
Snow Depth -    
Sea Level Pressure  
Sea Level Pressure 29.89 in    
Wind  
Wind Speed 9 mph (SSW)    
Max Wind Speed 29 mph    
Max Gust Speed 37 mph    
Visibility 10 miles    
Events Rain , Thunderstorm    
T = Trace of Precipitation, MM = Missing Value Source: NWS Daily Summary

Daily Weather History Graph

Daily Weather History Graph

Search for Another Location

Airport or City:

Trip Planner

Search our weather history database for the weather conditions in past years. The results will help you decide how hot, cold, wet, or windy it might be!

Date:

Astronomy

Mar. 08, 2013 Rise Set
Actual Time 6:26 AM MST 6:09 PM MST
Civil Twilight 6:01 AM MST 6:34 PM MST
Nautical Twilight 5:32 AM MST 7:03 PM MST
Astronomical Twilight 5:03 AM MST 7:33 PM MST
Moon 4:06 AM MST (3/8) 3:13 PM MST (3/8)
Length of Visible Light 12h 32m
Length of Day
11h 42m
Waning Crescent, 11% of the Moon is Illuminated
Mar 8
Waning Crescent
Mar 11
New
Mar 19
First Quarter
Mar 27
Full
Apr 2
Last Quarter

Hourly Weather History & Observations

Time (MST) Temp. Windchill Dew Point Humidity Pressure Visibility Wind Dir Wind Speed Gust Speed Precip Events Conditions
12:15 AM 48.0 °F - 11.3 °F 23% 29.99 in 10.0 mi WSW 5.8 mph - N/A   Clear
12:55 AM 46.0 °F 44.8 °F 11.3 °F 25% 29.98 in 10.0 mi East 3.5 mph - N/A   Clear
1:15 AM 45.7 °F 44.4 °F 11.3 °F 25% 29.98 in 10.0 mi North 3.5 mph - N/A   Clear
1:35 AM 43.7 °F 41.1 °F 10.8 °F 26% 29.98 in 10.0 mi NNW 4.6 mph - N/A   Clear
1:55 AM 42.1 °F 40.2 °F 11.5 °F 29% 29.97 in 10.0 mi WNW 3.5 mph - N/A   Clear
2:15 AM 43.0 °F - 12.0 °F 28% 29.97 in 10.0 mi Calm Calm - N/A   Clear
2:55 AM 41.0 °F 39.0 °F 11.1 °F 29% 29.95 in 10.0 mi WNW 3.5 mph - N/A   Clear
3:15 AM 41.5 °F 39.6 °F 11.3 °F 29% 29.95 in 10.0 mi NNW 3.5 mph - N/A   Clear
3:35 AM 41.2 °F 38.2 °F 11.3 °F 30% 29.97 in 10.0 mi ESE 4.6 mph - N/A   Clear
3:55 AM 37.4 °F - 10.9 °F 34% 29.97 in 10.0 mi Calm Calm - N/A   Clear
4:15 AM 38.7 °F 36.3 °F 11.1 °F 32% 29.97 in 10.0 mi SW 3.5 mph - N/A   Clear
4:55 AM 38.1 °F 34.6 °F 11.5 °F 33% 29.98 in 10.0 mi WSW 4.6 mph - N/A   Clear
5:35 AM 36.0 °F - 10.9 °F 36% 29.98 in 10.0 mi Calm Calm - N/A   Clear
5:55 AM 36.7 °F - 11.5 °F 35% 29.98 in 10.0 mi Calm Calm - N/A   Clear
6:15 AM 37.9 °F - 11.3 °F 33% 29.98 in 10.0 mi Calm Calm - N/A   Clear
6:35 AM 37.4 °F - 11.5 °F 34% 29.97 in 10.0 mi Calm Calm - N/A   Clear
6:55 AM 39.0 °F - 12.0 °F 33% 29.97 in 10.0 mi Calm Calm - N/A   Clear
7:15 AM 38.8 °F - 12.7 °F 34% 29.97 in 10.0 mi Calm Calm - N/A   Clear
7:35 AM 41.9 °F - 13.6 °F 32% 29.96 in 10.0 mi Calm Calm - N/A   Clear
7:55 AM 46.9 °F - 15.3 °F 28% 29.97 in 10.0 mi WSW 8.1 mph - N/A   Clear
8:15 AM 45.0 °F - 12.7 °F 27% 29.96 in 10.0 mi Calm Calm - N/A   Clear
8:35 AM 48.0 °F - 14.2 °F 26% 29.95 in 10.0 mi Calm Calm - N/A   Clear
8:55 AM 51.8 °F - 15.4 °F 24% 29.98 in 10.0 mi SW 9.2 mph - N/A   Clear
9:15 AM 53.6 °F - 16.3 °F 23% 29.97 in 10.0 mi South 6.9 mph - N/A   Scattered Clouds
9:35 AM 55.8 °F - 17.6 °F 22% 29.97 in 10.0 mi SSW 6.9 mph - N/A   Scattered Clouds
9:55 AM 55.4 °F - 17.6 °F 23% 29.95 in 10.0 mi South 10.4 mph - N/A   Mostly Cloudy
10:15 AM 55.8 °F - 18.7 °F 23% 29.95 in 10.0 mi SSE 10.4 mph - N/A   Mostly Cloudy
10:35 AM 58.6 °F - 19.9 °F 22% 29.93 in 10.0 mi SSE 11.5 mph - N/A   Scattered Clouds
10:55 AM 60.6 °F - 20.7 °F 21% 29.93 in 10.0 mi South 13.8 mph 18.4 mph N/A   Clear
11:15 AM 60.3 °F - 21.2 °F 22% 29.92 in 10.0 mi South 17.3 mph 21.9 mph N/A   Clear
11:35 AM 61.7 °F - 25.5 °F 25% 29.91 in 10.0 mi South 19.6 mph 31.1 mph N/A   Mostly Cloudy
11:55 AM 60.6 °F - 25.7 °F 26% 29.90 in 10.0 mi SSE 18.4 mph 27.6 mph N/A   Scattered Clouds
12:15 PM 63.0 °F - 28.2 °F 27% 29.88 in 10.0 mi South 16.1 mph 24.2 mph N/A   Mostly Cloudy
12:35 PM 61.9 °F - 29.3 °F 29% 29.86 in 10.0 mi South 26.5 mph 32.2 mph N/A   Overcast
12:55 PM 58.3 °F - 34.0 °F 40% 29.85 in 10.0 mi South 21.9 mph 28.8 mph N/A Rain Light Rain
1:15 PM 53.6 °F - 39.4 °F 59% 29.86 in 10.0 mi WSW 16.1 mph 24.2 mph N/A   Overcast
1:35 PM 48.6 °F - 43.9 °F 84% 29.89 in 5.0 mi WSW 28.8 mph 36.8 mph 0.02 in Rain Rain
1:55 PM 47.3 °F - 43.5 °F 87% 29.90 in 7.0 mi WSW 24.2 mph 35.7 mph 0.03 in Rain Light Rain
2:15 PM 46.9 °F - 43.3 °F 87% 29.88 in 10.0 mi SW 10.4 mph 13.8 mph 0.01 in Rain Rain
2:35 PM 49.6 °F - 43.2 °F 78% 29.85 in 10.0 mi South 11.5 mph - 0.01 in   Mostly Cloudy
2:55 PM 50.9 °F - 41.2 °F 69% 29.86 in 10.0 mi South 17.3 mph 23.0 mph 0.01 in   Overcast
3:15 PM 51.8 °F - 41.4 °F 68% 29.84 in 10.0 mi SSE 13.8 mph - N/A   Overcast
3:35 PM 53.2 °F - 41.4 °F 64% 29.83 in 10.0 mi SSE 13.8 mph 24.2 mph N/A   Scattered Clouds
3:55 PM 53.4 °F - 40.5 °F 61% 29.83 in 10.0 mi SSE 13.8 mph 21.9 mph N/A   Mostly Cloudy
4:15 PM 52.9 °F - 41.2 °F 64% 29.81 in 10.0 mi SSE 15.0 mph - N/A   Mostly Cloudy
4:35 PM 51.6 °F - 40.8 °F 67% 29.82 in 10.0 mi SSW 12.7 mph 23.0 mph N/A Rain Rain
4:55 PM 54.9 °F - 38.5 °F 54% 29.81 in 10.0 mi SSW 23.0 mph 26.5 mph N/A   Overcast
5:15 PM 54.0 °F - 38.5 °F 56% 29.81 in 10.0 mi South 23.0 mph 29.9 mph N/A Thunderstorm Scattered Clouds
5:35 PM 54.0 °F - 38.7 °F 56% 29.79 in 10.0 mi South 17.3 mph 26.5 mph N/A   Mostly Cloudy
5:55 PM 51.6 °F - 37.8 °F 59% 29.80 in 10.0 mi South 19.6 mph 27.6 mph N/A   Scattered Clouds
6:15 PM 50.2 °F - 37.2 °F 61% 29.81 in 10.0 mi SSW 24.2 mph 36.8 mph N/A   Mostly Cloudy
6:35 PM 49.1 °F - 36.7 °F 62% 29.81 in 10.0 mi South 19.6 mph 27.6 mph N/A   Overcast
6:55 PM 48.9 °F - 36.1 °F 61% 29.81 in 10.0 mi SSW 26.5 mph 33.4 mph N/A   Overcast
7:15 PM 48.4 °F - 35.1 °F 60% 29.80 in 10.0 mi SSW 21.9 mph 26.5 mph N/A   Mostly Cloudy
7:35 PM 47.3 °F - 34.9 °F 62% 29.80 in 10.0 mi SSW 23.0 mph 29.9 mph N/A   Mostly Cloudy
7:55 PM 46.8 °F - 35.1 °F 64% 29.81 in 10.0 mi SSW 17.3 mph 21.9 mph N/A   Overcast
8:15 PM 47.3 °F - 34.7 °F 62% 29.82 in 10.0 mi South 12.7 mph - N/A   Overcast
8:35 PM 47.3 °F - 33.3 °F 58% 29.82 in 10.0 mi SSW 21.9 mph 28.8 mph N/A   Overcast
8:55 PM 47.8 °F - 32.9 °F 56% 29.81 in 10.0 mi SSW 23.0 mph 29.9 mph N/A   Scattered Clouds
9:15 PM 48.2 °F - 33.3 °F 56% 29.82 in 10.0 mi SW 15.0 mph - N/A   Mostly Cloudy
9:35 PM 47.3 °F - 33.1 °F 58% 29.81 in 10.0 mi SW 15.0 mph 20.7 mph N/A   Mostly Cloudy
9:55 PM 47.3 °F - 33.6 °F 59% 29.81 in 10.0 mi SW 13.8 mph - N/A   Mostly Cloudy
10:15 PM 46.4 °F 41.5 °F 34.0 °F 62% 29.81 in 10.0 mi SW 10.4 mph - N/A   Mostly Cloudy
10:35 PM 45.7 °F 41.5 °F 35.8 °F 68% 29.81 in 10.0 mi WSW 8.1 mph - N/A   Overcast
10:55 PM 44.8 °F 39.9 °F 36.5 °F 73% 29.81 in 10.0 mi SW 9.2 mph - N/A   Light Drizzle
11:15 PM 43.9 °F 35.9 °F 36.1 °F 74% 29.82 in 10.0 mi SW 18.4 mph 32.2 mph N/A Rain Light Rain
11:55 PM 42.1 °F 34.9 °F 36.1 °F 79% 29.84 in 10.0 mi WSW 13.8 mph - N/A   Overcast